Friday Harbor, WA

6:16 PM PDT on April 25, 2018 (GMT -0700)
Friday Harbor

Weather History for KFHR - October, 2012

Change the Weather History Date:

Sunday, October 28, 2012

  Actual Average Record
Temperature  
Mean Temperature 52 °F -  
Max Temperature 57 °F 51 °F 64 °F (2016)
Min Temperature 48 °F 38 °F 35 °F (2004)
Degree Days  
Heating Degree Days 14    
Growing Degree Days 2 (Base 50)    
Moisture  
Dew Point 48 °F    
Average Humidity 89    
Maximum Humidity 100    
Minimum Humidity 75    
Precipitation  
Precipitation 0.00 in - - ()
Sea Level Pressure  
Sea Level Pressure 29.86 in    
Wind  
Wind Speed 5 mph (South)    
Max Wind Speed 12 mph    
Max Gust Speed 24 mph    
Visibility 10 miles    
Events Rain    
Averages and records for this station are not official NWS values.
T = Trace of Precipitation, MM = Missing Value Source: NWS Daily Summary

Daily Weather History Graph

Daily Weather History Graph

Search for Another Location

Airport or City:

Astronomy

Oct. 28, 2012 Rise Set
Actual Time 7:52 AM PDT 5:57 PM PDT
Civil Twilight 7:20 AM PDT 6:30 PM PDT
Nautical Twilight 6:43 AM PDT 7:07 PM PDT
Astronomical Twilight 6:07 AM PDT 7:43 PM PDT
Moon 5:18 PM PDT (10/28) 6:49 AM PDT (10/28)
Length of Visible Light 11h 10m
Length of Day
10h 05m
Waxing Gibbous, 99% of the Moon is Illuminated
Oct 28
Waxing Gibbous
Oct 29
Full
Nov 6
Last Quarter
Nov 13
New
Nov 20
First Quarter

Hourly Weather History & Observations

Time (PDT) Temp. Dew Point Humidity Pressure Visibility Wind Dir Wind Speed Gust Speed Precip Events Conditions
12:04 AM 51.8 °F 50.0 °F 94% 29.79 in 10.0 mi South 5.8 mph - N/A   Overcast
12:34 AM 51.8 °F 51.8 °F 100% 29.79 in 10.0 mi South 9.2 mph - N/A   Overcast
12:43 AM 53.6 °F 51.8 °F 94% 29.79 in 10.0 mi SSW 11.5 mph 21.9 mph N/A   Overcast
12:53 AM 52.0 °F 50.0 °F 93% 29.80 in 10.0 mi SSW 11.5 mph 23.0 mph N/A   Mostly Cloudy
1:53 AM 53.1 °F 50.0 °F 89% 29.83 in 10.0 mi SSW 10.4 mph 24.2 mph N/A   Clear
2:53 AM 53.1 °F 48.9 °F 86% 29.86 in 10.0 mi Variable 6.9 mph - N/A   Clear
3:53 AM 53.1 °F 48.9 °F 86% 29.88 in 10.0 mi Variable 5.8 mph - N/A   Clear
4:53 AM 54.0 °F 48.0 °F 80% 29.87 in 10.0 mi WSW 9.2 mph 18.4 mph N/A   Clear
5:53 AM 52.0 °F 46.9 °F 83% 29.89 in 10.0 mi SE 6.9 mph - N/A   Clear
6:53 AM 52.0 °F 46.9 °F 83% 29.90 in 10.0 mi Calm Calm - N/A   Clear
7:53 AM 48.9 °F 46.9 °F 93% 29.91 in 10.0 mi SE 4.6 mph - N/A   Partly Cloudy
8:53 AM 48.9 °F 46.9 °F 93% 29.92 in 10.0 mi Calm Calm - N/A   Clear
9:53 AM 53.1 °F 48.0 °F 83% 29.93 in 10.0 mi SW 6.9 mph - N/A   Partly Cloudy
10:53 AM 53.1 °F 48.9 °F 86% 29.93 in 10.0 mi SW 6.9 mph - N/A   Mostly Cloudy
11:53 AM 55.0 °F 48.0 °F 77% 29.94 in 10.0 mi SSW 6.9 mph - N/A   Mostly Cloudy
12:53 PM 55.0 °F 48.0 °F 77% 29.94 in 10.0 mi SW 4.6 mph - N/A   Overcast
1:53 PM 55.0 °F 48.0 °F 77% 29.93 in 10.0 mi ESE 4.6 mph - N/A   Mostly Cloudy
2:53 PM 55.9 °F 48.0 °F 75% 29.92 in 10.0 mi ESE 5.8 mph - N/A   Partly Cloudy
3:53 PM 53.1 °F 48.0 °F 83% 29.91 in 10.0 mi Calm Calm - N/A   Clear
4:53 PM 52.0 °F 46.9 °F 83% 29.90 in 10.0 mi Calm Calm - N/A   Clear
5:53 PM 50.0 °F 46.9 °F 89% 29.88 in 9.0 mi Calm Calm - N/A   Mostly Cloudy
6:53 PM 48.9 °F 46.9 °F 93% 29.86 in 10.0 mi Calm Calm - N/A   Overcast
7:40 PM 48.2 °F 46.4 °F 93% 29.85 in 10.0 mi Calm Calm - N/A   Overcast
7:53 PM 50.0 °F 48.0 °F 93% 29.86 in 10.0 mi Calm Calm - N/A   Overcast
8:29 PM 48.2 °F 46.4 °F 93% 29.84 in 10.0 mi Calm Calm - N/A   Overcast
8:53 PM 48.9 °F 48.0 °F 97% 29.83 in 7.0 mi Calm Calm - 0.00 in Rain Light Rain
9:18 PM 50.0 °F 48.2 °F 94% 29.81 in 10.0 mi Calm Calm - 0.00 in Rain Light Rain
9:26 PM 50.0 °F 48.2 °F 94% 29.82 in 10.0 mi Calm Calm - 0.00 in Rain Light Rain
9:53 PM 50.0 °F 48.0 °F 93% 29.81 in 10.0 mi Calm Calm - 0.00 in Rain Light Rain
10:22 PM 50.0 °F 48.2 °F 94% 29.80 in 10.0 mi Calm Calm - 0.00 in Rain Light Rain
10:53 PM 50.0 °F 48.0 °F 93% 29.79 in 7.0 mi North 3.5 mph - 0.00 in Rain Light Rain
11:50 PM 51.8 °F 48.2 °F 88% 29.77 in 6.0 mi North 5.8 mph - 0.00 in Rain Light Rain
11:53 PM 51.1 °F 48.9 °F 92% 29.77 in 6.0 mi North 4.6 mph - 0.00 in Rain Light Rain